This is the latest recevied weather packets stored in our database for station/object KL1IO. If no packets are shown the sender has not sent any weather packets the latest 1 day(s).
| Time | Temp. | Humidity | Pressure | Rain* | Wind** | Luminosity | Snow |
|---|---|---|---|---|---|---|---|
| 1778032594 | 3.89° C | 99% | 1012.2 hPa | 1.78 mm | 0 m/s | 51 W/m² | - |
| 1778032291 | 3.89° C | 99% | 1012.1 hPa | 3.05 mm | 0 m/s | 53 W/m² | - |
| 1778031989 | 3.89° C | 99% | 1012.1 hPa | 1.27 mm | 0 m/s | 56 W/m² | - |
| 1778031684 | 3.89° C | 99% | 1011.9 hPa | 1.78 mm | 0.45 m/s, 195° | 59 W/m² | - |
| 1778031383 | 3.89° C | 99% | 1011.9 hPa | 3.56 mm | 0.45 m/s, 196° | 58 W/m² | - |
| 1778031080 | 3.89° C | 99% | 1012 hPa | 3.05 mm | 0.89 m/s, 174° | 55 W/m² | - |
| 1778030776 | 3.89° C | 99% | 1012 hPa | 1.27 mm | 0.45 m/s, 151° | 55 W/m² | - |
| 1778030472 | 3.89° C | 99% | 1011.9 hPa | 1.78 mm | 0.45 m/s, 155° | 51 W/m² | - |
| 1778030170 | 3.89° C | 99% | 1011.9 hPa | 3.05 mm | 0.45 m/s, 121° | 53 W/m² | - |
| 1778029866 | 3.89° C | 99% | 1011.8 hPa | 3.05 mm | 0.89 m/s, 124° | 55 W/m² | - |
| 1778029565 | 3.89° C | 99% | 1011.8 hPa | 3.05 mm | 0.45 m/s, 174° | 56 W/m² | - |
| 1778029262 | 3.89° C | 99% | 1011.9 hPa | 3.05 mm | 0.45 m/s, 186° | 54 W/m² | - |
| 1778028959 | 3.89° C | 99% | 1011.9 hPa | 1.78 mm | 0.89 m/s, 113° | 48 W/m² | - |
| 1778028655 | 3.89° C | 99% | 1011.8 hPa | 1.27 mm | 0.45 m/s, 174° | 51 W/m² | - |
| 1778028352 | 3.89° C | 99% | 1011.8 hPa | 3.05 mm | 0.45 m/s, 182° | 59 W/m² | - |
| 1778028049 | 3.89° C | 99% | 1011.7 hPa | 3.05 mm | 0.89 m/s, 177° | 66 W/m² | - |
| 1778027745 | 3.89° C | 99% | 1011.8 hPa | 1.27 mm | 0 m/s | 69 W/m² | - |
| 1778027441 | 4.44° C | 99% | 1011.8 hPa | 1.78 mm | 0.89 m/s, 145° | 68 W/m² | - |
| 1778027137 | 4.44° C | 99% | 1011.8 hPa | 3.05 mm | 0.45 m/s, 190° | 71 W/m² | - |
| 1778026833 | 4.44° C | 99% | 1011.8 hPa | 1.27 mm | 0.89 m/s, 192° | 71 W/m² | - |
| 1778026530 | 4.44° C | 99% | 1011.9 hPa | 1.78 mm | 0 m/s | 67 W/m² | - |
| 1778026227 | 4.44° C | 99% | 1011.7 hPa | 1.78 mm | 0 m/s | 69 W/m² | - |
| 1778025925 | 5° C | 99% | 1011.6 hPa | 1.78 mm | 0 m/s | 71 W/m² | - |
| 1778025622 | 5° C | 99% | 1011.8 hPa | 1.78 mm | 0 m/s | 76 W/m² | - |
| 1778025320 | 5° C | 99% | 1011.6 hPa | 1.27 mm | 0 m/s | 73 W/m² | - |
* Rain latest hour (hover to see other rain measurements)
** Current wind speed in m/s (hover to see current wind gust speed)